^^
Station Historical Data
Daily Summary for June 20, 2021 Units:  English    Metric   Both
Daily Weekly Monthly Yearly
  High: Low: Average:
Temperature: 78.9 °F 59.8 °F 69.3 °F
Dew Point: 66.5 °F 51.1 °F 59.3 °F
Humidity: 79% 56% 71%
Wind Speed: 4mph 0mph 1.5mph
Wind Gust: 6mph - -
Wind- - ESE
Pressure: 29.74 in 29.54 in -
Precipitation: 0.00 in    
 
 
Tabular Data for June 20, 2021
Time Temperature Dew Point Pressure Wind Wind Speed Wind Gust Humidity Rainfall Rate (Hourly) solar
00:00 63.7 °F 54.5 °F 29.73 in NNE 2 mph 2 mph 72% 0.00 in 0 W/m2
00:05 63.5 °F 54.7 °F 29.73 in East 2 mph 2 mph 73% 0.00 in 0 W/m2
00:10 63.4 °F 55 °F 29.73 in ENE 2 mph 5 mph 74% 0.00 in 0 W/m2
00:15 63.3 °F 54.9 °F 29.73 in NE 2 mph 5 mph 74% 0.00 in 0 W/m2
00:20 63.2 °F 54.8 °F 29.73 in North 2 mph 2 mph 74% 0.00 in 0 W/m2
00:25 63.1 °F 54.7 °F 29.73 in East 2 mph 4 mph 74% 0.00 in 0 W/m2
00:30 63 °F 54.6 °F 29.74 in NE 2 mph 2 mph 74% 0.00 in 0 W/m2
00:35 63 °F 54.9 °F 29.74 in North 2 mph 2 mph 75% 0.00 in 0 W/m2
00:40 62.9 °F 54.9 °F 29.74 in SSE 1 mph 2 mph 75% 0.00 in 0 W/m2
00:45 62.8 °F 54.8 °F 29.73 in ENE 1 mph 2 mph 75% 0.00 in 0 W/m2
00:50 62.8 °F 55.1 °F 29.73 in East 2 mph 2 mph 76% 0.00 in 0 W/m2
00:55 62.8 °F 55.1 °F 29.73 in NNE 1 mph 2 mph 76% 0.00 in 0 W/m2
01:00 62.7 °F 55 °F 29.73 in ENE 2 mph 2 mph 76% 0.00 in 0 W/m2
01:05 62.7 °F 55 °F 29.73 in NE 2 mph 2 mph 76% 0.00 in 0 W/m2
01:10 62.6 °F 54.9 °F 29.72 in ENE 2 mph 2 mph 76% 0.00 in 0 W/m2
01:15 62.5 °F 54.8 °F 29.72 in East 2 mph 2 mph 76% 0.00 in 0 W/m2
01:20 62.4 °F 54.7 °F 29.72 in ENE 2 mph 2 mph 76% 0.00 in 0 W/m2
01:25 62.3 °F 54.6 °F 29.72 in ENE 2 mph 2 mph 76% 0.00 in 0 W/m2
01:30 62.2 °F 54.5 °F 29.72 in South 2 mph 2 mph 76% 0.00 in 0 W/m2
01:35 62.1 °F 54.4 °F 29.71 in ENE 2 mph 2 mph 76% 0.00 in 0 W/m2
01:40 62 °F 54.3 °F 29.71 in East 2 mph 3 mph 76% 0.00 in 0 W/m2
01:45 61.9 °F 54.2 °F 29.71 in ENE 2 mph 3 mph 76% 0.00 in 0 W/m2
01:50 61.9 °F 54.2 °F 29.71 in ENE 2 mph 2 mph 76% 0.00 in 0 W/m2
01:55 61.8 °F 54.5 °F 29.71 in NE 2 mph 6 mph 77% 0.00 in 0 W/m2
02:00 61.8 °F 54.5 °F 29.71 in SE 2 mph 2 mph 77% 0.00 in 0 W/m2
02:05 61.7 °F 54.4 °F 29.71 in ENE 2 mph 2 mph 77% 0.00 in 0 W/m2
02:10 61.7 °F 54.4 °F 29.70 in ENE 1 mph 1 mph 77% 0.00 in 0 W/m2
02:15 61.6 °F 54.3 °F 29.71 in East 2 mph 2 mph 77% 0.00 in 0 W/m2
02:20 61.6 °F 54 °F 29.71 in ENE 2 mph 2 mph 76% 0.00 in 0 W/m2
02:30 61.4 °F 53.8 °F 29.70 in ESE 1 mph 2 mph 76% 0.00 in 0 W/m2
02:35 61.4 °F 54.1 °F 29.70 in NE 1 mph 2 mph 77% 0.00 in 0 W/m2
02:40 61.4 °F 54.1 °F 29.70 in East 1 mph 1 mph 77% 0.00 in 0 W/m2
02:45 61.4 °F 54.1 °F 29.70 in NE 1 mph 1 mph 77% 0.00 in 0 W/m2
02:50 61.4 °F 54.5 °F 29.71 in East 1 mph 1 mph 78% 0.00 in 0 W/m2
02:55 61.4 °F 54.1 °F 29.71 in East 1 mph 2 mph 77% 0.00 in 0 W/m2
03:00 61.3 °F 54 °F 29.71 in ESE 1 mph 2 mph 77% 0.00 in 0 W/m2
03:05 61.3 °F 54 °F 29.71 in East 1 mph 2 mph 77% 0.00 in 0 W/m2
03:10 61.3 °F 54.4 °F 29.71 in NNE 1 mph 1 mph 78% 0.00 in 0 W/m2
03:15 61.4 °F 54.8 °F 29.71 in East 2 mph 2 mph 79% 0.00 in 0 W/m2
03:20 61.4 °F 54.8 °F 29.71 in East 2 mph 2 mph 79% 0.00 in 0 W/m2
03:25 61.4 °F 54.5 °F 29.71 in NE 1 mph 2 mph 78% 0.00 in 0 W/m2
03:30 61.3 °F 54.4 °F 29.72 in North 1 mph 1 mph 78% 0.00 in 0 W/m2
03:35 61.3 °F 54 °F 29.72 in North 1 mph 1 mph 77% 0.00 in 0 W/m2
03:40 61.1 °F 53.5 °F 29.72 in NE 1 mph 1 mph 76% 0.00 in 0 W/m2
03:45 61.1 °F 53.1 °F 29.72 in Calm   1 mph 75% 0.00 in 0 W/m2
03:50 61 °F 53 °F 29.72 in ESE 1 mph 1 mph 75% 0.00 in 0 W/m2
03:55 60.9 °F 52.9 °F 29.72 in NE 1 mph 1 mph 75% 0.00 in 0 W/m2
04:00 60.9 °F 52.9 °F 29.72 in ENE 1 mph 1 mph 75% 0.00 in 0 W/m2
04:05 60.9 °F 52.9 °F 29.72 in ENE 1 mph 1 mph 75% 0.00 in 0 W/m2
04:10 60.8 °F 52.8 °F 29.72 in ENE 1 mph 2 mph 75% 0.00 in 0 W/m2
04:15 60.8 °F 52.8 °F 29.72 in SE 1 mph 2 mph 75% 0.00 in 0 W/m2
04:20 60.7 °F 52.7 °F 29.72 in ENE 1 mph 1 mph 75% 0.00 in 0 W/m2
04:25 60.7 °F 52.7 °F 29.72 in NNE 1 mph 1 mph 75% 0.00 in 0 W/m2
04:30 60.7 °F 52.7 °F 29.73 in NE 1 mph 1 mph 75% 0.00 in 0 W/m2
04:35 60.6 °F 52.6 °F 29.72 in East 1 mph 1 mph 75% 0.00 in 0 W/m2
04:40 60.6 °F 53 °F 29.72 in NE 1 mph 1 mph 76% 0.00 in 0 W/m2
04:45 60.5 °F 52.9 °F 29.72 in NNE 1 mph 1 mph 76% 0.00 in 0 W/m2
04:50 60.5 °F 52.9 °F 29.72 in NE 1 mph 1 mph 76% 0.00 in 0 W/m2
04:55 60.4 °F 52.8 °F 29.72 in Calm   1 mph 76% 0.00 in 0 W/m2
05:00 60.4 °F 52.8 °F 29.72 in Calm   1 mph 76% 0.00 in 0 W/m2
05:05 60.3 °F 52.7 °F 29.72 in East 1 mph 1 mph 76% 0.00 in 0 W/m2
05:10 60.2 °F 52.6 °F 29.71 in East 1 mph 1 mph 76% 0.00 in 0 W/m2
05:15 60.1 °F 52.5 °F 29.71 in East 1 mph 1 mph 76% 0.00 in 0 W/m2
05:20 60 °F 52.4 °F 29.71 in ENE 1 mph 4 mph 76% 0.00 in 0 W/m2
05:25 59.9 °F 52 °F 29.71 in SE 2 mph 4 mph 75% 0.00 in 0 W/m2
05:30 59.8 °F 51.5 °F 29.72 in East 2 mph 2 mph 74% 0.00 in 0 W/m2
05:35 59.8 °F 51.1 °F 29.72 in ENE 1 mph 2 mph 73% 0.00 in 0 W/m2
05:40 59.8 °F 51.5 °F 29.72 in NE 1 mph 1 mph 74% 0.00 in 0 W/m2
05:45 59.8 °F 51.5 °F 29.72 in SSE 1 mph 1 mph 74% 0.00 in 0 W/m2
05:50 59.9 °F 52 °F 29.72 in East 1 mph 2 mph 75% 0.00 in 0 W/m2
05:55 59.9 °F 51.6 °F 29.72 in NE 1 mph 2 mph 74% 0.00 in 5 W/m2
06:00 59.9 °F 51.2 °F 29.72 in NE 2 mph 2 mph 73% 0.00 in 7 W/m2
06:05 60 °F 51.3 °F 29.73 in NE 2 mph 2 mph 73% 0.00 in 9 W/m2
06:10 60 °F 51.3 °F 29.73 in NE 2 mph 2 mph 73% 0.00 in 12 W/m2
06:15 60 °F 51.7 °F 29.73 in NE 1 mph 2 mph 74% 0.00 in 14 W/m2
06:20 60 °F 51.7 °F 29.73 in East 1 mph 2 mph 74% 0.00 in 16 W/m2
06:25 60.1 °F 51.8 °F 29.73 in ENE 2 mph 2 mph 74% 0.00 in 19 W/m2
06:30 60.1 °F 52.1 °F 29.72 in East 1 mph 1 mph 75% 0.00 in 23 W/m2
06:35 60.1 °F 52.5 °F 29.73 in ENE 1 mph 3 mph 76% 0.00 in 30 W/m2
06:40 60.3 °F 53.1 °F 29.73 in ENE 1 mph 1 mph 77% 0.00 in 40 W/m2
06:45 60.4 °F 53.5 °F 29.73 in East 1 mph 1 mph 78% 0.00 in 54 W/m2
06:50 60.4 °F 53.5 °F 29.73 in East 2 mph 2 mph 78% 0.00 in 54 W/m2
06:55 60.5 °F 53.6 °F 29.73 in ENE 2 mph 2 mph 78% 0.00 in 62 W/m2
07:00 60.6 °F 53.7 °F 29.73 in ENE 2 mph 3 mph 78% 0.00 in 60 W/m2
07:05 60.7 °F 53.4 °F 29.73 in ENE 2 mph 3 mph 77% 0.00 in 56 W/m2
07:10 60.8 °F 53.2 °F 29.72 in East 2 mph 2 mph 76% 0.00 in 54 W/m2
07:15 60.9 °F 53.3 °F 29.72 in East 2 mph 3 mph 76% 0.00 in 56 W/m2
07:20 61.1 °F 53.5 °F 29.71 in ENE 2 mph 3 mph 76% 0.00 in 44 W/m2
07:25 61.3 °F 53.7 °F 29.71 in NE 2 mph 3 mph 76% 0.00 in 53 W/m2
07:30 61.5 °F 53.5 °F 29.72 in NE 2 mph 3 mph 75% 0.00 in 113 W/m2
07:35 61.6 °F 53.2 °F 29.72 in ENE 2 mph 3 mph 74% 0.00 in 63 W/m2
07:40 61.8 °F 53.4 °F 29.72 in East 2 mph 2 mph 74% 0.00 in 193 W/m2
07:45 61.9 °F 53.1 °F 29.72 in East 2 mph 2 mph 73% 0.00 in 211 W/m2
07:50 62.2 °F 53.4 °F 29.72 in ESE 2 mph 2 mph 73% 0.00 in 223 W/m2
07:55 62.3 °F 53.5 °F 29.72 in NE 2 mph 2 mph 73% 0.00 in 237 W/m2
08:00 62.6 °F 53.8 °F 29.71 in ESE 2 mph 5 mph 73% 0.00 in 253 W/m2
08:05 62.9 °F 54.1 °F 29.71 in East 2 mph 5 mph 73% 0.00 in 265 W/m2
08:10 63.2 °F 54.4 °F 29.72 in East 3 mph 3 mph 73% 0.00 in 278 W/m2
08:15 63.5 °F 55.1 °F 29.72 in WSW 2 mph 3 mph 74% 0.00 in 295 W/m2
08:20 63.8 °F 55 °F 29.72 in East 2 mph 2 mph 73% 0.00 in 311 W/m2
08:25 64 °F 55.2 °F 29.73 in East 2 mph 2 mph 73% 0.00 in 320 W/m2
08:30 64.3 °F 55.5 °F 29.73 in ESE 2 mph 2 mph 73% 0.00 in 339 W/m2
08:35 64.5 °F 56 °F 29.73 in ESE 2 mph 2 mph 74% 0.00 in 353 W/m2
08:40 64.8 °F 56.3 °F 29.73 in SE 1 mph 2 mph 74% 0.00 in 367 W/m2
08:45 65 °F 56.1 °F 29.72 in East 2 mph 2 mph 73% 0.00 in 383 W/m2
08:50 65.2 °F 56.3 °F 29.73 in ESE 2 mph 2 mph 73% 0.00 in 397 W/m2
08:55 65.3 °F 56 °F 29.73 in East 1 mph 2 mph 72% 0.00 in 410 W/m2
09:00 65.5 °F 56.6 °F 29.73 in East 2 mph 2 mph 73% 0.00 in 425 W/m2
09:05 65.6 °F 56.3 °F 29.72 in ENE 2 mph 3 mph 72% 0.00 in 436 W/m2
09:10 65.7 °F 56.4 °F 29.72 in ESE 2 mph 4 mph 72% 0.00 in 457 W/m2
09:15 66 °F 57.5 °F 29.73 in ESE 3 mph 4 mph 74% 0.00 in 468 W/m2
09:20 66.4 °F 57.9 °F 29.73 in East 2 mph 2 mph 74% 0.00 in 478 W/m2
09:25 66.7 °F 57.8 °F 29.73 in NE 1 mph 2 mph 73% 0.00 in 483 W/m2
09:30 66.8 °F 57.9 °F 29.74 in East 1 mph 1 mph 73% 0.00 in 503 W/m2
09:35 67 °F 58.4 °F 29.74 in SE 1 mph 1 mph 74% 0.00 in 517 W/m2
09:40 67.2 °F 59 °F 29.74 in SE 1 mph 1 mph 75% 0.00 in 538 W/m2
09:45 67.5 °F 58.9 °F 29.73 in South 1 mph 1 mph 74% 0.00 in 545 W/m2
09:50 67.8 °F 59.2 °F 29.73 in ESE 1 mph 2 mph 74% 0.00 in 561 W/m2
09:55 68 °F 59 °F 29.72 in East 1 mph 2 mph 73% 0.00 in 573 W/m2
10:00 68.3 °F 59.3 °F 29.72 in ESE 1 mph 2 mph 73% 0.00 in 580 W/m2
10:05 68.6 °F 60 °F 29.72 in ESE 1 mph 2 mph 74% 0.00 in 591 W/m2
10:10 68.8 °F 59.8 °F 29.72 in SE 2 mph 2 mph 73% 0.00 in 610 W/m2
10:15 69.3 °F 60.3 °F 29.72 in SE 1 mph 2 mph 73% 0.00 in 622 W/m2
10:20 69.9 °F 60.8 °F 29.71 in SE 1 mph 1 mph 73% 0.00 in 636 W/m2
10:25 70.1 °F 60.7 °F 29.71 in ESE 1 mph 1 mph 72% 0.00 in 647 W/m2
10:30 70.4 °F 60.9 °F 29.71 in NE 1 mph 1 mph 72% 0.00 in 661 W/m2
10:35 70.6 °F 61.1 °F 29.71 in South 1 mph 1 mph 72% 0.00 in 673 W/m2
10:40 70.8 °F 61.3 °F 29.71 in ESE 2 mph 2 mph 72% 0.00 in 686 W/m2
10:45 71 °F 61.5 °F 29.70 in SW 1 mph 2 mph 72% 0.00 in 694 W/m2
10:50 71.1 °F 61.2 °F 29.71 in SSW 1 mph 1 mph 71% 0.00 in 707 W/m2
10:55 71.2 °F 61.3 °F 29.71 in North 1 mph 2 mph 71% 0.00 in 717 W/m2
11:00 71.3 °F 61.4 °F 29.71 in ESE 1 mph 2 mph 71% 0.00 in 715 W/m2
11:05 71.5 °F 61.6 °F 29.71 in ENE 1 mph 2 mph 71% 0.00 in 726 W/m2
11:10 71.7 °F 61.4 °F 29.71 in ESE 1 mph 1 mph 70% 0.00 in 740 W/m2
11:15 71.9 °F 61.6 °F 29.71 in NE 1 mph 1 mph 70% 0.00 in 664 W/m2
11:20 72.2 °F 62.3 °F 29.71 in NNW 1 mph 1 mph 71% 0.00 in 759 W/m2
11:25 72.3 °F 62.4 °F 29.71 in ESE 1 mph 2 mph 71% 0.00 in 745 W/m2
11:30 72.5 °F 62.2 °F 29.71 in NNW 2 mph 4 mph 70% 0.00 in 823 W/m2
11:35 72.7 °F 62.3 °F 29.71 in East 2 mph 4 mph 70% 0.00 in 786 W/m2
11:40 72.8 °F 62.4 °F 29.71 in NNE 2 mph 4 mph 70% 0.00 in 798 W/m2
11:45 72.9 °F 62.5 °F 29.71 in NNW 2 mph 4 mph 70% 0.00 in 765 W/m2
11:50 73 °F 63 °F 29.70 in North 2 mph 2 mph 71% 0.00 in 791 W/m2
11:55 73 °F 63 °F 29.70 in NNW 2 mph 2 mph 71% 0.00 in 847 W/m2
12:00 73.1 °F 62.7 °F 29.70 in East 2 mph 3 mph 70% 0.00 in 563 W/m2
12:05 72.9 °F 62.5 °F 29.70 in NNW 3 mph 5 mph 70% 0.00 in 751 W/m2
12:10 72.9 °F 62.5 °F 29.70 in NW 3 mph 3 mph 70% 0.00 in 633 W/m2
12:15 72.9 °F 62.5 °F 29.70 in ENE 3 mph 3 mph 70% 0.00 in 900 W/m2
12:20 73 °F 63 °F 29.70 in West 2 mph 2 mph 71% 0.00 in 932 W/m2
12:25 73.2 °F 62.8 °F 29.70 in NW 2 mph 2 mph 70% 0.00 in 886 W/m2
12:30 73.5 °F 63.1 °F 29.70 in ESE 2 mph 2 mph 70% 0.00 in 645 W/m2
12:35 73.8 °F 62.6 °F 29.70 in NE 1 mph 2 mph 68% 0.00 in 598 W/m2
12:40 73.9 °F 63.1 °F 29.70 in NE 2 mph 4 mph 69% 0.00 in 371 W/m2
12:45 73.9 °F 62.7 °F 29.70 in NW 2 mph 4 mph 68% 0.00 in 427 W/m2
12:50 73.3 °F 62.5 °F 29.70 in WNW 2 mph 2 mph 69% 0.00 in 983 W/m2
12:55 74.2 °F 63.4 °F 29.69 in NNW 2 mph 5 mph 69% 0.00 in 1014 W/m2
13:00 73.7 °F 62.9 °F 29.69 in NNE 3 mph 3 mph 69% 0.00 in 840 W/m2
13:05 73 °F 62.2 °F 29.70 in ENE 3 mph 3 mph 69% 0.00 in 468 W/m2
13:10 72.3 °F 62.4 °F 29.70 in ENE 3 mph 3 mph 71% 0.00 in 629 W/m2
13:15 71.9 °F 62.4 °F 29.69 in East 3 mph 3 mph 72% 0.00 in 591 W/m2
13:20 72 °F 62.5 °F 29.69 in NNW 3 mph 4 mph 72% 0.00 in 513 W/m2
13:25 71.8 °F 62.7 °F 29.69 in WNW 4 mph 5 mph 73% 0.00 in 793 W/m2
13:30 72 °F 62.5 °F 29.68 in NNE 4 mph 6 mph 72% 0.00 in 740 W/m2
13:35 72.4 °F 62.5 °F 29.68 in NW 3 mph 6 mph 71% 0.00 in 817 W/m2
13:40 72.5 °F 63 °F 29.69 in WNW 3 mph 3 mph 72% 0.00 in 504 W/m2
13:45 72 °F 62.1 °F 29.69 in NNE 3 mph 3 mph 71% 0.00 in 476 W/m2
13:50 71.9 °F 62 °F 29.69 in North 3 mph 4 mph 71% 0.00 in 390 W/m2
13:55 71.7 °F 62.6 °F 29.68 in North 3 mph 4 mph 73% 0.00 in 390 W/m2
14:00 72 °F 62.9 °F 29.68 in NNW 3 mph 3 mph 73% 0.00 in 446 W/m2
14:05 72.3 °F 62.8 °F 29.69 in NE 2 mph 3 mph 72% 0.00 in 345 W/m2
14:10 72.5 °F 62.6 °F 29.68 in NE 2 mph 2 mph 71% 0.00 in 524 W/m2
14:15 72.7 °F 62.8 °F 29.68 in North 2 mph 2 mph 71% 0.00 in 338 W/m2
14:20 72.7 °F 62.3 °F 29.69 in NW 2 mph 2 mph 70% 0.00 in 436 W/m2
14:25 72.8 °F 62.4 °F 29.68 in North 2 mph 2 mph 70% 0.00 in 506 W/m2
14:30 73.1 °F 62.7 °F 29.68 in NW 2 mph 2 mph 70% 0.00 in 585 W/m2
14:35 73.3 °F 62.9 °F 29.68 in NNE 2 mph 2 mph 70% 0.00 in 515 W/m2
14:40 73.5 °F 62.7 °F 29.69 in NNE 1 mph 1 mph 69% 0.00 in 441 W/m2
14:45 73.6 °F 62.8 °F 29.68 in SE 1 mph 1 mph 69% 0.00 in 445 W/m2
14:50 73.8 °F 63 °F 29.68 in NNW 2 mph 3 mph 69% 0.00 in 856 W/m2
14:55 74.1 °F 62.9 °F 29.68 in NE 2 mph 3 mph 68% 0.00 in 589 W/m2
15:00 74.3 °F 63.5 °F 29.68 in NNW 2 mph 2 mph 69% 0.00 in 853 W/m2
15:05 74.5 °F 63.7 °F 29.67 in NE 2 mph 2 mph 69% 0.00 in 693 W/m2
15:10 74.7 °F 63 °F 29.67 in NE 2 mph 4 mph 67% 0.00 in 953 W/m2
15:15 74.8 °F 63.1 °F 29.67 in SE 2 mph 4 mph 67% 0.00 in 719 W/m2
15:20 74.9 °F 63.6 °F 29.67 in NNE 2 mph 2 mph 68% 0.00 in 861 W/m2
15:25 75.1 °F 63.4 °F 29.67 in NW 2 mph 3 mph 67% 0.00 in 844 W/m2
15:30 75.3 °F 63.2 °F 29.67 in North 2 mph 3 mph 66% 0.00 in 837 W/m2
15:35 75.7 °F 62.7 °F 29.66 in ENE 2 mph 3 mph 64% 0.00 in 821 W/m2
15:40 75.7 °F 63.1 °F 29.66 in East 2 mph 2 mph 65% 0.00 in 789 W/m2
15:45 76.1 °F 63 °F 29.66 in NNE 2 mph 2 mph 64% 0.00 in 795 W/m2
15:50 76.6 °F 64 °F 29.66 in ENE 2 mph 3 mph 65% 0.00 in 819 W/m2
15:55 76.8 °F 63.7 °F 29.66 in ENE 2 mph 3 mph 64% 0.00 in 675 W/m2
16:00 76.9 °F 64.2 °F 29.66 in NE 2 mph 3 mph 65% 0.00 in 650 W/m2
16:05 76.7 °F 62.7 °F 29.65 in NNE 2 mph 3 mph 62% 0.00 in 802 W/m2
16:10 76.9 °F 62.9 °F 29.65 in ENE 2 mph 3 mph 62% 0.00 in 737 W/m2
16:15 77.1 °F 63.5 °F 29.65 in ENE 2 mph 3 mph 63% 0.00 in 731 W/m2
16:20 77.5 °F 62.5 °F 29.64 in NW 2 mph 2 mph 60% 0.00 in 731 W/m2
16:25 78.4 °F 62.4 °F 29.64 in NW 2 mph 2 mph 58% 0.00 in 700 W/m2
16:30 78.5 °F 62.5 °F 29.64 in East 1 mph 1 mph 58% 0.00 in 422 W/m2
16:35 78.7 °F 63.6 °F 29.63 in ENE 1 mph 2 mph 60% 0.00 in 336 W/m2
16:40 78.9 °F 63.8 °F 29.64 in East 1 mph 1 mph 60% 0.00 in 309 W/m2
16:45 78.8 °F 63.7 °F 29.64 in ENE 2 mph 2 mph 60% 0.00 in 436 W/m2
16:50 78.7 °F 64.1 °F 29.63 in NNE 1 mph 1 mph 61% 0.00 in 485 W/m2
16:55 78.7 °F 64.1 °F 29.63 in East 1 mph 1 mph 61% 0.00 in 350 W/m2
17:00 78.6 °F 63.6 °F 29.63 in ENE 1 mph 2 mph 60% 0.00 in 334 W/m2
17:05 78.6 °F 63.6 °F 29.63 in NE 1 mph 2 mph 60% 0.00 in 345 W/m2
17:10 78.7 °F 64.1 °F 29.63 in NE 2 mph 2 mph 61% 0.00 in 350 W/m2
17:15 78.7 °F 63.6 °F 29.63 in NE 1 mph 2 mph 60% 0.00 in 390 W/m2
17:20 78.6 °F 62.1 °F 29.62 in SSE 1 mph 1 mph 57% 0.00 in 274 W/m2
17:25 78.5 °F 61.5 °F 29.63 in NE 1 mph 1 mph 56% 0.00 in 274 W/m2
17:30 78.4 °F 62.4 °F 29.63 in ESE 1 mph 2 mph 58% 0.00 in 211 W/m2
17:35 78.2 °F 61.7 °F 29.62 in ENE 1 mph 2 mph 57% 0.00 in 155 W/m2
17:40 78.1 °F 62.1 °F 29.62 in East 1 mph 2 mph 58% 0.00 in 151 W/m2
17:45 77.9 °F 61.9 °F 29.62 in NNE 1 mph 2 mph 58% 0.00 in 181 W/m2
17:50 77.7 °F 61.7 °F 29.63 in Calm     58% 0.00 in 216 W/m2
17:55 77.7 °F 62.2 °F 29.63 in Calm   1 mph 59% 0.00 in 202 W/m2
18:00 77.6 °F 62.1 °F 29.62 in East 1 mph 1 mph 59% 0.00 in 197 W/m2
18:05 77.5 °F 62 °F 29.62 in NE 1 mph 1 mph 59% 0.00 in 181 W/m2
18:10 77.3 °F 61.9 °F 29.63 in Calm     59% 0.00 in 139 W/m2
18:15 77.2 °F 62.2 °F 29.63 in Calm   1 mph 60% 0.00 in 130 W/m2
18:20 77.1 °F 62.6 °F 29.63 in Calm     61% 0.00 in 127 W/m2
18:25 77.1 °F 64 °F 29.63 in Calm   1 mph 64% 0.00 in 121 W/m2
18:30 77.1 °F 64 °F 29.64 in NNE 1 mph 1 mph 64% 0.00 in 132 W/m2
18:35 77.1 °F 64 °F 29.64 in ENE 1 mph 1 mph 64% 0.00 in 209 W/m2
18:40 77.2 °F 64.1 °F 29.63 in Calm   1 mph 64% 0.00 in 316 W/m2
18:45 77.4 °F 63.8 °F 29.62 in North 1 mph 1 mph 63% 0.00 in 197 W/m2
18:50 77.4 °F 64.3 °F 29.62 in NNE 1 mph 1 mph 64% 0.00 in 151 W/m2
18:55 77.4 °F 65.1 °F 29.63 in Calm   1 mph 66% 0.00 in 130 W/m2
19:00 77.5 °F 66.1 °F 29.63 in North 1 mph 1 mph 68% 0.00 in 116 W/m2
19:05 77.4 °F 66 °F 29.63 in NNE 1 mph 1 mph 68% 0.00 in 130 W/m2
19:10 77.5 °F 66.5 °F 29.62 in NW 1 mph 1 mph 69% 0.00 in 135 W/m2
19:15 77.4 °F 65.6 °F 29.62 in Calm   1 mph 67% 0.00 in 127 W/m2
19:20 77.3 °F 64.2 °F 29.61 in Calm     64% 0.00 in 111 W/m2
19:25 77.4 °F 64.3 °F 29.61 in Calm     64% 0.00 in 81 W/m2
19:30 77.3 °F 64.2 °F 29.60 in Calm     64% 0.00 in 77 W/m2
19:35 77.3 °F 64.2 °F 29.60 in Calm   1 mph 64% 0.00 in 54 W/m2
19:40 77.2 °F 63.2 °F 29.59 in Calm   1 mph 62% 0.00 in 35 W/m2
19:45 77.1 °F 62.6 °F 29.58 in NE 1 mph 1 mph 61% 0.00 in 26 W/m2
19:50 77.1 °F 62.6 °F 29.57 in NE 1 mph 1 mph 61% 0.00 in 28 W/m2
19:55 77.1 °F 62.6 °F 29.56 in East 1 mph 2 mph 61% 0.00 in 35 W/m2
20:00 77 °F 63 °F 29.56 in East 1 mph 1 mph 62% 0.00 in 37 W/m2
20:05 77 °F 63.4 °F 29.58 in ESE 1 mph 1 mph 63% 0.00 in 30 W/m2
20:10 77 °F 64.8 °F 29.58 in ESE 1 mph 4 mph 66% 0.00 in 28 W/m2
20:15 76.7 °F 65.3 °F 29.59 in ESE 2 mph 4 mph 68% 0.00 in 28 W/m2
20:20 76.1 °F 64.8 °F 29.58 in East 2 mph 3 mph 68% 0.00 in 26 W/m2
20:25 75.5 °F 63.8 °F 29.59 in ESE 2 mph 3 mph 67% 0.00 in 21 W/m2
20:30 75.1 °F 63.8 °F 29.58 in SSE 2 mph 2 mph 68% 0.00 in 23 W/m2
20:35 74.9 °F 64 °F 29.59 in SE 2 mph 2 mph 69% 0.00 in 25 W/m2
20:40 74.6 °F 63.8 °F 29.59 in SE 2 mph 2 mph 69% 0.00 in 19 W/m2
20:45 74.5 °F 63.7 °F 29.59 in SE 2 mph 2 mph 69% 0.00 in 14 W/m2
20:50 74.3 °F 63.5 °F 29.59 in SE 2 mph 2 mph 69% 0.00 in 11 W/m2
20:55 74.1 °F 63.7 °F 29.59 in SE 2 mph 2 mph 70% 0.00 in 7 W/m2
21:00 74 °F 63.6 °F 29.59 in East 2 mph 2 mph 70% 0.00 in 0 W/m2
21:05 73.9 °F 63.1 °F 29.58 in ESE 2 mph 3 mph 69% 0.00 in 0 W/m2
21:10 73.8 °F 63 °F 29.58 in SE 2 mph 2 mph 69% 0.00 in 5 W/m2
21:15 73.7 °F 63.3 °F 29.58 in SE 2 mph 2 mph 70% 0.00 in 5 W/m2
21:20 73.6 °F 63.6 °F 29.58 in East 2 mph 2 mph 71% 0.00 in 0 W/m2
21:25 73.6 °F 63.6 °F 29.58 in SE 2 mph 2 mph 71% 0.00 in 0 W/m2
21:30 73.5 °F 63.9 °F 29.57 in SSE 2 mph 2 mph 72% 0.00 in 0 W/m2
21:35 73.3 °F 63.3 °F 29.57 in ENE 2 mph 2 mph 71% 0.00 in 0 W/m2
21:40 73.3 °F 63.7 °F 29.57 in South 2 mph 2 mph 72% 0.00 in 0 W/m2
21:45 73.2 °F 64 °F 29.56 in ESE 2 mph 2 mph 73% 0.00 in 0 W/m2
21:50 73.2 °F 63.6 °F 29.56 in SE 1 mph 2 mph 72% 0.00 in 0 W/m2
21:55 73 °F 63 °F 29.56 in SSE 1 mph 2 mph 71% 0.00 in 0 W/m2
22:00 73 °F 63.4 °F 29.57 in ENE 1 mph 1 mph 72% 0.00 in 0 W/m2
22:05 73 °F 63.4 °F 29.57 in SE 1 mph 1 mph 72% 0.00 in 0 W/m2
22:10 72.8 °F 62.8 °F 29.56 in East 1 mph 2 mph 71% 0.00 in 0 W/m2
22:15 72.8 °F 63.2 °F 29.56 in SE 1 mph 2 mph 72% 0.00 in 0 W/m2
22:20 72.7 °F 63.1 °F 29.55 in South 1 mph 2 mph 72% 0.00 in 0 W/m2
22:25 72.6 °F 63.1 °F 29.55 in ESE 1 mph 2 mph 72% 0.00 in 0 W/m2
22:30 72.6 °F 62.7 °F 29.54 in ESE 2 mph 3 mph 71% 0.00 in 0 W/m2
22:35 72.6 °F 62.3 °F 29.54 in ENE 2 mph 3 mph 70% 0.00 in 0 W/m2
22:40 72.5 °F 62.6 °F 29.55 in ESE 2 mph 2 mph 71% 0.00 in 0 W/m2
22:45 72.4 °F 63.6 °F 29.56 in East 1 mph 2 mph 74% 0.00 in 0 W/m2
22:50 72.4 °F 62.9 °F 29.55 in ESE 1 mph 1 mph 72% 0.00 in 0 W/m2
22:55 72.3 °F 62.4 °F 29.55 in ESE 1 mph 2 mph 71% 0.00 in 0 W/m2
23:00 72.2 °F 62.7 °F 29.55 in ENE 1 mph 1 mph 72% 0.00 in 0 W/m2
23:05 72.2 °F 62.3 °F 29.55 in SE 1 mph 1 mph 71% 0.00 in 0 W/m2
23:10 72.2 °F 63.1 °F 29.55 in SSE 1 mph 1 mph 73% 0.00 in 0 W/m2
23:15 72.1 °F 62.2 °F 29.55 in SSE 1 mph 1 mph 71% 0.00 in 0 W/m2
23:20 72.1 °F 62.6 °F 29.54 in North 1 mph 1 mph 72% 0.00 in 0 W/m2
23:25 72.1 °F 63 °F 29.54 in East 1 mph 1 mph 73% 0.00 in 0 W/m2
23:30 71.9 °F 62.4 °F 29.54 in ESE 1 mph 1 mph 72% 0.00 in 0 W/m2
23:35 71.9 °F 62.4 °F 29.54 in SE 1 mph 2 mph 72% 0.00 in 0 W/m2
23:40 71.9 °F 62.8 °F 29.54 in NE 1 mph 1 mph 73% 0.00 in 0 W/m2
23:45 71.9 °F 63.2 °F 29.54 in SSE 2 mph 3 mph 74% 0.00 in 0 W/m2
23:50 71.8 °F 62.7 °F 29.54 in ESE 2 mph 2 mph 73% 0.00 in 0 W/m2
23:55 71.9 °F 62.8 °F 29.54 in South 2 mph 2 mph 73% 0.00 in 0 W/m2
Sand Point, Michigan, USA
Compliments of Weather Underground - 2 mb